| time (UTC) | temp C | wind direction | speed KPH | gust KPH | rain 1hr cm | rain 24hr cm | rain mn cm | humidity % | barometer mb |
| 20260905172321 | 28 | 264 | 3.2 | 12.9 | 0.00 | 0.00 | 0.00 | 58 | 1019.9 |
| 20260905171325 | 28 | 360 | 6.4 | 9.7 | 0.00 | 0.00 | 0.00 | 55 | 1019.9 |
| 20260905170833 | 28 | 360 | 4.8 | 9.7 | 0.00 | 0.00 | 0.00 | 54 | 1019.8 |
| 20260905170323 | 28 | 360 | 4.8 | 9.7 | 0.00 | 0.00 | 0.00 | 57 | 1019.8 |
| 20260905165833 | 27 | 360 | 4.8 | 14.5 | 0.00 | 0.00 | 0.00 | 59 | 1019.7 |
| 20260905165347 | 27 | 360 | 4.8 | 14.5 | 0.00 | 0.00 | 0.00 | 62 | 1019.8 |
| 20260905164836 | 27 | 360 | 4.8 | 12.9 | 0.00 | 0.00 | 0.00 | 66 | 1019.8 |
| 20260905163831 | 26 | 360 | 8.0 | 16.1 | 0.00 | 0.00 | 0.00 | 67 | 1019.6 |
| 20260905163329 | 26 | 360 | 4.8 | 12.9 | 0.00 | 0.00 | 0.00 | 70 | 1019.7 |
| 20260905162834 | 26 | 360 | 3.2 | 14.5 | 0.00 | 0.00 | 0.00 | 70 | 1019.7 |
| 20260905162314 | 26 | 360 | 4.8 | 9.7 | 0.00 | 0.00 | 0.00 | 68 | 1019.5 |
| 20260905161855 | 27 | 360 | 4.8 | 6.4 | 0.00 | 0.00 | 0.00 | 66 | 1019.4 |
| 20260905161330 | 27 | 360 | 3.2 | 6.4 | 0.00 | 0.00 | 0.00 | 66 | 1019.3 |
| 20260905160833 | 27 | 242 | 1.6 | 6.4 | 0.00 | 0.00 | 0.00 | 65 | 1019.4 |
| 20260905160328 | 27 | 360 | 3.2 | 12.9 | 0.00 | 0.00 | 0.00 | 64 | 1019.4 |
| 20260905155829 | 28 | 360 | 6.4 | 12.9 | 0.00 | 0.00 | 0.00 | 61 | 1019.3 |
| 20260905155332 | 28 | 360 | 8.0 | 12.9 | 0.00 | 0.00 | 0.00 | 57 | 1019.3 |
| 20260905154847 | 29 | 360 | 6.4 | 12.9 | 0.00 | 0.00 | 0.00 | 57 | 1019.3 |
| 20260905153819 | 29 | 254 | 6.4 | 12.9 | 0.00 | 0.00 | 0.00 | 56 | 1019.2 |
| 20260905153321 | 29 | 360 | 6.4 | 14.5 | 0.00 | 0.00 | 0.00 | 56 | 1019.3 |
| 20260905152839 | 28 | 360 | 6.4 | 14.5 | 0.00 | 0.00 | 0.00 | 57 | 1019.4 |
| 20260905152318 | 28 | 360 | 6.4 | 14.5 | 0.00 | 0.00 | 0.00 | 59 | 1019.6 |
| 20260905151821 | 27 | 360 | 6.4 | 14.5 | 0.00 | 0.00 | 0.00 | 62 | 1019.6 |
| 20260905151320 | 27 | 360 | 6.4 | 12.9 | 0.00 | 0.00 | 0.00 | 65 | 1019.8 |
| 20260905143818 | 28 | 360 | 3.2 | 6.4 | 0.00 | 0.00 | 0.00 | 66 | 1019.8 |
| 20260905143351 | 28 | 360 | 0.0 | 3.2 | 0.00 | 0.00 | 0.00 | 64 | 1019.7 |
| 20260905142839 | 28 | 240 | 0.0 | 0.0 | 0.00 | 0.00 | 0.00 | 65 | 1019.8 |
| 20260905141323 | 28 | 240 | 0.0 | 0.0 | 0.00 | 0.00 | 0.00 | 68 | 1019.8 |
| 20260905140855 | 28 | 240 | 0.0 | 0.0 | 0.00 | 0.00 | 0.00 | 66 | 1019.8 |
| 20260905140317 | 28 | 240 | 0.0 | 0.0 | 0.00 | 0.00 | 0.00 | 64 | 1019.9 |
| 20260905135824 | 28 | 238 | 0.0 | 0.0 | 0.00 | 0.00 | 0.00 | 67 | 1019.8 |
| 20260905135324 | 27 | 238 | 0.0 | 0.0 | 0.00 | 0.00 | 0.00 | 67 | 1020.0 |
| 20260905134833 | 27 | 238 | 0.0 | 3.2 | 0.00 | 0.00 | 0.00 | 72 | 1019.9 |
| 20260905134433 | 27 | 238 | 0.0 | 4.8 | 0.00 | 0.00 | 0.00 | 70 | 1019.9 |
| 20260905134352 | 27 | 238 | 0.0 | 4.8 | 0.00 | 0.00 | 0.00 | 70 | 1019.9 |
| 20260905133900 | 27 | 238 | 1.6 | 4.8 | 0.00 | 0.00 | 0.00 | 71 | 1020.1 |
| 20260905133327 | 27 | 242 | 3.2 | 8.0 | 0.00 | 0.00 | 0.00 | 68 | 1020.1 |
| 20260905132817 | 27 | 244 | 4.8 | 11.3 | 0.00 | 0.00 | 0.00 | 65 | 1020.3 |
| 20260905132333 | 27 | 360 | 6.4 | 11.3 | 0.00 | 0.00 | 0.00 | 64 | 1020.3 |
| 20260905131815 | 26 | 360 | 6.4 | 9.7 | 0.00 | 0.00 | 0.00 | 65 | 1020.3 |
| 20260905125830 | 26 | 253 | 3.2 | 8.0 | 0.00 | 0.00 | 0.00 | 67 | 1020.2 |
| 20260905124955 | 26 | 257 | 3.2 | 6.4 | 0.00 | 0.00 | 0.00 | 67 | 1020.4 |
| 20260905124854 | 26 | 257 | 3.2 | 6.4 | 0.00 | 0.00 | 0.00 | 67 | 1020.4 |
| 20260905123904 | 26 | 236 | 1.6 | 4.8 | 0.00 | 0.00 | 0.00 | 66 | 1020.4 |
| 20260905123436 | 26 | 236 | 3.2 | 4.8 | 0.00 | 0.00 | 0.00 | 67 | 1020.4 |
| 20260905123343 | 26 | 236 | 3.2 | 4.8 | 0.00 | 0.00 | 0.00 | 67 | 1020.4 |
| 20260905122833 | 26 | 236 | 3.2 | 4.8 | 0.00 | 0.00 | 0.00 | 65 | 1020.5 |
| 20260905122345 | 26 | 236 | 3.2 | 4.8 | 0.00 | 0.00 | 0.00 | 65 | 1020.5 |
| 20260905121822 | 26 | 232 | 3.2 | 4.8 | 0.00 | 0.00 | 0.00 | 66 | 1020.4 |
| 20260905121321 | 26 | 233 | 3.2 | 4.8 | 0.00 | 0.00 | 0.00 | 68 | 1020.5 |
| 20260905120815 | 25 | 232 | 3.2 | 4.8 | 0.00 | 0.00 | 0.00 | 69 | 1020.5 |
| 20260905120316 | 25 | 244 | 3.2 | 4.8 | 0.00 | 0.00 | 0.00 | 70 | 1020.5 |
| 20260905115411 | 25 | 243 | 1.6 | 4.8 | 0.00 | 0.00 | 0.00 | 74 | 1020.5 |
| 20260905115339 | 25 | 243 | 1.6 | 4.8 | 0.00 | 0.00 | 0.00 | 74 | 1020.5 |
| 20260905115006 | 25 | 244 | 3.2 | 4.8 | 0.00 | 0.00 | 0.00 | 75 | 1020.4 |
| 20260905114853 | 25 | 244 | 3.2 | 4.8 | 0.00 | 0.00 | 0.00 | 75 | 1020.4 |
| 20260905113823 | 25 | 248 | 1.6 | 4.8 | 0.00 | 0.00 | 0.00 | 73 | 1020.5 |
| 20260905113345 | 25 | 248 | 3.2 | 6.4 | 0.00 | 0.00 | 0.00 | 75 | 1020.5 |
| 20260905112825 | 24 | 360 | 4.8 | 6.4 | 0.00 | 0.00 | 0.00 | 73 | 1020.5 |
| 20260905112338 | 25 | 235 | 3.2 | 4.8 | 0.00 | 0.00 | 0.00 | 74 | 1020.6 |
| 20260905111833 | 25 | 240 | 1.6 | 4.8 | 0.00 | 0.00 | 0.00 | 76 | 1020.4 |
| 20260905110826 | 25 | 241 | 1.6 | 4.8 | 0.00 | 0.00 | 0.00 | 76 | 1020.6 |
| 20260905110349 | 25 | 240 | 3.2 | 4.8 | 0.00 | 0.00 | 0.00 | 75 | 1020.6 |
| 20260905105840 | 25 | 240 | 1.6 | 4.8 | 0.00 | 0.00 | 0.00 | 74 | 1020.6 |
| 20260905105407 | 25 | 240 | 3.2 | 4.8 | 0.00 | 0.00 | 0.00 | 72 | 1020.6 |
| 20260905104848 | 26 | 240 | 3.2 | 4.8 | 0.00 | 0.00 | 0.00 | 69 | 1020.5 |
| 20260905104326 | 26 | 242 | 1.6 | 3.2 | 0.00 | 0.00 | 0.00 | 69 | 1020.5 |
| 20260905101818 | 24 | 250 | 0.0 | 3.2 | 0.00 | 0.00 | 0.00 | 75 | 1020.6 |
| 20260905101340 | 23 | 250 | 0.0 | 6.4 | 0.00 | 0.00 | 0.00 | 77 | 1020.7 |
| 20260905100856 | 23 | 250 | 3.2 | 6.4 | 0.00 | 0.00 | 0.00 | 76 | 1020.7 |
| 20260905100315 | 23 | 360 | 3.2 | 6.4 | 0.00 | 0.00 | 0.00 | 77 | 1020.7 |
| 20260905095846 | 23 | 270 | 3.2 | 6.4 | 0.00 | 0.00 | 0.00 | 77 | 1020.7 |
| 20260905095331 | 23 | 275 | 6.4 | 6.4 | 0.00 | 0.00 | 0.00 | 76 | 1020.7 |
| 20260905094818 | 23 | 264 | 0.0 | 0.0 | 0.00 | 0.00 | 0.00 | 77 | 1020.6 |
| 20260905094316 | 23 | 265 | 0.0 | 0.0 | 0.00 | 0.00 | 0.00 | 77 | 1020.6 |
| 20260905093902 | 23 | 265 | 0.0 | 1.6 | 0.00 | 0.00 | 0.00 | 77 | 1020.6 |
| 20260905092900 | 23 | 265 | 1.6 | 4.8 | 0.00 | 0.00 | 0.00 | 80 | 1020.6 |
| 20260905091833 | 22 | 265 | 3.2 | 6.4 | 0.00 | 0.00 | 0.00 | 80 | 1020.6 |
| 20260905091343 | 22 | 266 | 4.8 | 6.4 | 0.00 | 0.00 | 0.00 | 79 | 1020.5 |
| 20260905064345 | 21 | 82 | 3.2 | 9.7 | 0.00 | 0.00 | 0.00 | 86 | 1019.6 |
| 20260905063822 | 20 | 127 | 1.6 | 4.8 | 0.00 | 0.00 | 0.00 | 86 | 1019.5 |
| 20260905063325 | 20 | 46 | 0.0 | 0.0 | 0.00 | 0.00 | 0.00 | 86 | 1019.6 |
| 20260905062821 | 20 | 300 | 0.0 | 0.0 | 0.00 | 0.00 | 0.00 | 86 | 1019.7 |
| 20260905062318 | 20 | 299 | 0.0 | 0.0 | 0.00 | 0.00 | 0.00 | 85 | 1019.5 |
| 20260905061819 | 20 | 299 | 0.0 | 0.0 | 0.00 | 0.00 | 0.00 | 85 | 1019.5 |
| 20260905061316 | 20 | 302 | 0.0 | 0.0 | 0.00 | 0.00 | 0.00 | 85 | 1019.4 |
| 20260905060838 | 20 | 302 | 0.0 | 0.0 | 0.00 | 0.00 | 0.00 | 85 | 1019.3 |
| 20260905055828 | 21 | 302 | 0.0 | 4.8 | 0.00 | 0.00 | 0.00 | 83 | 1019.2 |
| 20260905055328 | 21 | 259 | 1.6 | 4.8 | 0.00 | 0.00 | 0.00 | 83 | 1019.2 |
| 20260905052321 | 22 | 257 | 3.2 | 14.5 | 0.00 | 0.00 | 0.00 | 78 | 1019.0 |
| 20260905051848 | 22 | 360 | 4.8 | 16.1 | 0.00 | 0.00 | 0.00 | 82 | 1019.0 |
| 20260905050831 | 21 | 84 | 1.6 | 8.0 | 0.00 | 0.00 | 0.00 | 87 | 1019.0 |
| 20260905045321 | 20 | 157 | 0.0 | 0.0 | 0.00 | 0.00 | 0.00 | 90 | 1019.2 |
| 20260905044930 | 20 | 157 | 0.0 | 4.8 | 0.00 | 0.00 | 0.00 | 90 | 1019.3 |
| 20260905044846 | 20 | 157 | 0.0 | 4.8 | 0.00 | 0.00 | 0.00 | 90 | 1019.3 |
| 20260905044322 | 20 | 157 | 1.6 | 4.8 | 0.00 | 0.00 | 0.00 | 90 | 1019.4 |
| 20260905035840 | 20 | 233 | 3.2 | 4.8 | 0.00 | 0.00 | 0.00 | 89 | 1019.5 |
| 20260905035335 | 20 | 232 | 0.0 | 4.8 | 0.00 | 0.00 | 0.00 | 89 | 1019.5 |
| 20260905034845 | 20 | 137 | 0.0 | 0.0 | 0.00 | 0.00 | 0.00 | 88 | 1019.5 |
| 20260905034331 | 20 | 193 | 0.0 | 0.0 | 0.00 | 0.00 | 0.00 | 88 | 1019.6 |
| 20260905033823 | 20 | 193 | 0.0 | 0.0 | 0.00 | 0.00 | 0.00 | 88 | 1019.5 |
| 20260905033318 | 20 | 193 | 0.0 | 0.0 | 0.00 | 0.00 | 0.00 | 88 | 1019.4 |
| 20260905032852 | 20 | 193 | 0.0 | 0.0 | 0.00 | 0.00 | 0.00 | 88 | 1019.4 |
| 20260905032326 | 20 | 193 | 0.0 | 0.0 | 0.00 | 0.00 | 0.00 | 88 | 1019.4 |
| 20260905001315 | 21 | 236 | 6.4 | 12.9 | 0.00 | 0.00 | 0.00 | 80 | 1020.7 |
| 20260905000845 | 21 | 360 | 3.2 | 12.9 | 0.00 | 0.00 | 0.00 | 79 | 1020.7 |
| 20260905000355 | 21 | 217 | 3.2 | 6.4 | 0.00 | 0.00 | 0.00 | 78 | 1020.6 |
| 20260904235909 | 22 | 249 | 1.6 | 8.0 | 0.00 | 0.00 | 0.00 | 78 | 1020.7 |
| 20260904235359 | 22 | 211 | 1.6 | 8.0 | 0.00 | 0.00 | 0.00 | 76 | 1020.6 |
| 20260904234833 | 22 | 260 | 3.2 | 6.4 | 0.00 | 0.00 | 0.00 | 76 | 1020.6 |
| 20260904234348 | 22 | 268 | 1.6 | 4.8 | 0.00 | 0.00 | 0.00 | 75 | 1020.6 |
| 20260904233834 | 22 | 329 | 0.0 | 6.4 | 0.00 | 0.00 | 0.00 | 75 | 1020.7 |
| 20260904233319 | 23 | 329 | 3.2 | 8.0 | 0.00 | 0.00 | 0.00 | 74 | 1020.8 |
| 20260904232828 | 23 | 360 | 4.8 | 8.0 | 0.00 | 0.00 | 0.00 | 72 | 1020.9 |
| 20260904232348 | 23 | 78 | 0.0 | 9.7 | 0.00 | 0.00 | 0.00 | 71 | 1020.5 |
| 20260904231900 | 23 | 87 | 4.8 | 9.7 | 0.00 | 0.00 | 0.00 | 72 | 1020.5 |
| 20260904230852 | 23 | 86 | 8.0 | 9.7 | 0.00 | 0.00 | 0.00 | 76 | 1020.3 |
| 20260904230332 | 22 | 360 | 1.6 | 4.8 | 0.00 | 0.00 | 0.00 | 77 | 1020.3 |
| 20260904225830 | 22 | 81 | 3.2 | 8.0 | 0.00 | 0.00 | 0.00 | 77 | 1020.4 |
| 20260904225350 | 22 | 154 | 1.6 | 8.0 | 0.00 | 0.00 | 0.00 | 77 | 1020.5 |
| 20260904224844 | 22 | 65 | 1.6 | 6.4 | 0.00 | 0.00 | 0.00 | 77 | 1020.4 |
| 20260904224359 | 22 | 34 | 3.2 | 6.4 | 0.00 | 0.00 | 0.00 | 78 | 1020.4 |
| 20260904223826 | 22 | 86 | 4.8 | 9.7 | 0.00 | 0.00 | 0.00 | 78 | 1020.4 |
| 20260904223328 | 22 | 248 | 1.6 | 12.9 | 0.00 | 0.00 | 0.00 | 78 | 1020.4 |
| 20260904222824 | 22 | 360 | 8.0 | 12.9 | 0.00 | 0.00 | 0.00 | 78 | 1020.4 |
| 20260904222347 | 22 | 360 | 3.2 | 8.0 | 0.00 | 0.00 | 0.00 | 78 | 1020.6 |
| 20260904221822 | 22 | 110 | 3.2 | 6.4 | 0.00 | 0.00 | 0.00 | 77 | 1020.6 |
| 20260904221345 | 22 | 178 | 3.2 | 6.4 | 0.00 | 0.00 | 0.00 | 77 | 1020.6 |
| 20260904220827 | 22 | 123 | 3.2 | 6.4 | 0.00 | 0.00 | 0.00 | 77 | 1020.7 |
| 20260904220351 | 22 | 196 | 3.2 | 4.8 | 0.00 | 0.00 | 0.00 | 76 | 1020.8 |
| 20260904215852 | 22 | 250 | 1.6 | 8.0 | 0.00 | 0.00 | 0.00 | 76 | 1020.8 |
| 20260904215348 | 22 | 336 | 4.8 | 12.9 | 0.00 | 0.00 | 0.00 | 76 | 1020.7 |
| 20260904214829 | 22 | 314 | 3.2 | 12.9 | 0.00 | 0.00 | 0.00 | 75 | 1020.8 |
| 20260904214346 | 22 | 360 | 6.4 | 9.7 | 0.00 | 0.00 | 0.00 | 75 | 1020.9 |
| 20260904213829 | 23 | 355 | 6.4 | 30.6 | 0.00 | 0.00 | 0.00 | 74 | 1020.8 |
| 20260904213325 | 24 | 360 | 16.1 | 30.6 | 0.00 | 0.00 | 0.00 | 69 | 1020.9 |
| 20260904212830 | 26 | 173 | 0.0 | 4.8 | 0.00 | 0.00 | 0.00 | 65 | 1020.4 |
| 20260904212345 | 26 | 360 | 0.0 | 0.0 | 0.00 | 0.00 | 0.00 | 62 | 1020.4 |